[[{"header":{"parameterUnit":"m.s-1","parameterCategory":1,"la1":30.2991,"la2":30.254,"lo1":-89.0895,"lo2":-89.0444,"dy":0.0017,"dx":0.0017,"nx":28,"ny":28,"refTime":"2025-07-16T09:00:00:Z","depth":0,"parameterNumber":2,"parameterNumberName":"U-component_of_WINDS"},"data":[0,0,0,0,0,0,0,0,0,0,0,0,0,0,0,0,0,0,0,0,0,0,0,0,0,0,0,0,0,0,0,0,0,0,0,0,0,0,0,0,0,0,0,0,0,0,0,0,0,0,0,0,0,0,0,0,0,0,1.9454,1.9453,0,1.9369,1.9368,1.9367,1.9249,1.9247,1.9245,1.9243,1.9153,1.9153,1.9152,0,0,0,0,0,0,0,0,0,0,0,0,0,1.9514,1.9513,1.9454,1.9453,1.9452,1.9369,1.9368,1.9367,1.9249,1.9247,1.9245,1.9242,1.9154,1.9153,1.9152,0,0,0,0,0,0,0,0,0,0,0,0,0,1.9464,1.9513,1.9454,1.9384,1.9377,1.9369,1.9368,1.9366,1.925,1.9247,1.9244,1.9241,1.9154,1.9153,1.9152,1.9207,0,0,1.915,1.9149,0,0,0,0,0,0,0,0,1.9467,1.9462,1.9395,1.9389,1.9381,1.9317,1.9356,1.9313,1.9251,1.9298,1.9243,1.924,1.921,1.9204,1.9195,1.9202,1.9199,1.915,1.9149,1.9149,1.9149,0,0,0,0,0,0,0,1.9471,1.9465,1.942,1.9394,1.9385,1.9355,1.9345,1.9347,1.9272,1.9294,1.9285,1.9277,1.9205,1.9196,1.9192,1.9197,1.915,1.9149,1.9148,1.9148,1.9245,1.9248,0,0,0,0,0,0,1.9485,1.9469,1.9423,1.9418,1.9417,1.9357,1.9345,1.934,1.9271,1.9258,1.9279,1.9271,1.9199,1.9193,1.9188,1.9249,1.9149,1.9148,1.9148,1.9242,1.9246,1.9249,0,0,0,0,0,0,1.9487,1.9482,1.9426,1.9441,1.9431,1.9359,1.9354,1.934,1.933,1.926,1.9246,1.9284,1.9196,1.9189,1.9203,1.9244,1.9148,1.9147,1.9239,1.9243,1.9248,1.937,0,0,0,0,0,0,1.9489,1.9483,1.9504,1.9442,1.9431,1.9444,1.9357,1.934,1.933,1.9319,1.9261,1.9248,1.9193,1.9205,1.9203,1.9241,1.9146,1.9235,1.9241,1.9246,1.9362,1.9378,1.9392,0,0,0,0,0,1.9491,1.9541,1.9506,1.9501,1.9456,1.9447,1.9441,1.9377,1.9333,1.9353,1.9308,1.925,1.9239,1.9208,1.9204,1.9242,1.9232,1.9239,1.9246,1.9355,1.9375,1.9391,0,0,0,0,0,0,1.9609,1.9532,1.9492,1.9523,1.9493,1.9427,1.9451,1.94,1.9381,1.9371,1.9292,1.928,1.9304,1.9273,1.924,1.9291,1.9227,1.9233,1.9311,1.9329,1.9344,1.9352,1.9146,0,0,0,0,0,1.9639,1.9639,1.957,1.9605,1.9591,1.9524,1.9518,1.9471,1.9436,1.9423,1.9378,1.9346,1.9335,1.933,1.9316,1.9355,1.9342,1.938,1.9395,1.9408,1.9415,1.9435,1.9451,1.9272,1.9272,1.9272,0,0,1.97,1.9657,1.9662,1.9627,1.9598,1.96,1.9514,1.9519,1.9519,1.9423,1.9435,1.9401,1.9359,1.9387,1.9396,1.9362,1.9461,1.9416,1.9427,1.9427,1.9444,1.9461,1.9476,1.9277,1.9276,1.9275,0,0,1.9813,1.978,1.9806,1.9779,1.9736,1.9691,1.9697,1.9639,1.9613,1.9623,1.9551,1.9549,1.9532,1.9506,1.949,1.9593,1.9539,1.959,1.9669,1.9689,1.9703,1.9716,1.9754,1.9769,1.9597,1.9597,1.9597,0,1.9895,1.9895,1.9825,1.9836,1.9823,1.9735,1.9761,1.9737,1.9692,1.9685,1.9647,1.9624,1.9589,1.961,1.9635,1.9625,1.963,1.9598,1.9707,1.9719,1.9729,1.9765,1.9779,1.9604,1.9603,1.9602,1.9602,0,1.9999,2.0,2.0025,1.9985,1.9974,1.9992,1.9925,1.9922,1.9876,1.9834,1.9845,1.9801,1.9777,1.9777,1.9732,1.9792,1.9772,1.9722,1.9656,1.9754,1.9786,1.9799,1.9613,1.9611,1.9609,1.9607,0,0,2.0187,2.0107,2.0118,2.0099,2.0044,2.0044,2.0057,2.0034,2.0034,2.0005,2.0014,2.0001,1.9954,1.9937,1.9887,1.9904,1.999,1.9852,1.9849,1.9881,2.0055,2.0096,2.0113,1.9953,1.9955,1.9957,2.0059,0,2.0291,2.0311,2.0248,2.0284,2.0285,2.0201,2.0212,2.018,2.0141,2.0135,2.009,2.0084,2.0021,2.001,2.0023,1.9978,2.0025,1.9969,1.9962,1.9963,1.9979,2.0129,2.0172,2.0272,2.0071,2.0073,2.0075,0,2.0417,2.0396,2.0433,2.0377,2.0374,2.0386,2.0361,2.0355,2.0317,2.0287,2.0267,2.021,2.0218,2.0152,2.0163,2.0126,2.0119,2.0096,2.0098,2.0098,2.0028,2.0136,2.0301,2.0318,2.0094,2.0092,2.0091,0,2.0554,2.0534,2.0554,2.0539,2.0474,2.0484,2.0457,2.0415,2.0406,2.0382,2.0375,2.0353,2.0341,2.0325,2.0262,2.022,2.0281,2.021,2.0257,2.0259,2.0276,2.0277,2.0446,2.0267,2.0267,2.0266,2.0266,0,2.068,2.0706,2.0614,2.0627,2.0653,2.0579,2.0607,2.0571,2.0535,2.0538,2.0462,2.0467,2.0383,2.0378,2.0329,2.0346,2.034,2.0317,2.0304,2.0326,2.0329,2.0322,2.0315,2.027,2.0269,2.0269,2.0268,0,2.0839,2.0779,2.0795,2.0731,2.0715,2.0738,2.0683,2.0692,2.0646,2.0652,2.0649,2.0579,2.0569,2.0504,2.0479,2.0446,2.0482,2.0453,2.0496,2.0488,2.054,2.0537,2.0714,2.0734,2.0539,2.0541,2.0543,0,2.0926,2.0944,2.0882,2.088,2.0856,2.0853,2.0843,2.0769,2.0762,2.0719,2.0733,2.0717,2.0701,2.0689,2.0635,2.0615,2.0588,2.0651,2.0585,2.0606,2.0592,2.0593,2.0596,2.0666,2.0669,2.0671,2.0673,0,2.1086,2.1055,2.1044,2.1023,2.1013,2.0992,2.0967,2.0968,2.0887,2.0883,2.0872,2.086,2.0834,2.082,2.0791,2.0761,2.0705,2.0693,2.0704,2.0728,2.0753,2.0743,2.0538,2.069,2.0689,2.0687,2.0686,2.0686,2.1213,2.1226,2.1185,2.1175,2.1148,2.1126,2.1131,2.1087,2.1077,2.1052,2.1008,2.1005,2.0964,2.0919,2.0894,2.089,2.0856,2.0871,2.0875,2.0881,2.0893,2.0751,2.0884,2.0883,2.0882,2.0882,2.0881,0,2.1372,2.1341,2.1333,2.13,2.1292,2.1238,2.1206,2.1204,2.1202,2.1169,2.1155,2.1143,2.1128,2.1072,2.1052,2.1059,2.1032,2.1056,2.1057,2.1051,2.0923,2.0917,2.1078,2.1078,2.1078,2.1078,2.1078,2.1078,2.1454,2.1474,2.1437,2.1442,2.141,2.1407,2.1394,2.1373,2.1347,2.1338,2.1325,2.1289,2.1247,2.1222,2.1206,2.119,2.1187,2.1221,2.1197,2.1079,2.106,2.1042,2.1037,2.122,2.122,2.1325,2.1326,2.1327]},{"header":{"parameterUnit":"m.s-1","parameterCategory":1,"la1":30.2991,"la2":30.254,"lo1":-89.0895,"lo2":-89.0444,"dy":0.0017,"dx":0.0017,"nx":28,"ny":28,"refTime":"2025-07-16T09:00:00:Z","depth":0,"parameterNumber":3,"parameterNumberName":"V-component_of_WINDS"},"data":[0,0,0,0,0,0,0,0,0,0,0,0,0,0,0,0,0,0,0,0,0,0,0,0,0,0,0,0,0,0,0,0,0,0,0,0,0,0,0,0,0,0,0,0,0,0,0,0,0,0,0,0,0,0,0,0,0,0,-2.2001,-2.2001,0,-2.2018,-2.2019,-2.2019,-2.2016,-2.2016,-2.2015,-2.2015,-2.2031,-2.2031,-2.2032,0,0,0,0,0,0,0,0,0,0,0,0,0,-2.1963,-2.1963,-2.2001,-2.2001,-2.2001,-2.2018,-2.2019,-2.2019,-2.2016,-2.2016,-2.2015,-2.2015,-2.203,-2.2031,-2.2032,0,0,0,0,0,0,0,0,0,0,0,0,0,-2.198,-2.1964,-2.2001,-2.2002,-2.2002,-2.2018,-2.2019,-2.2019,-2.2016,-2.2016,-2.2015,-2.2015,-2.203,-2.2031,-2.2032,-2.2047,0,0,-2.2035,-2.2036,0,0,0,0,0,0,0,0,-2.1979,-2.1981,-2.2002,-2.2002,-2.2002,-2.2015,-2.2011,-2.2028,-2.2016,-2.2011,-2.2015,-2.2015,-2.2026,-2.2027,-2.2031,-2.2048,-2.2049,-2.2035,-2.2036,-2.2036,-2.2037,0,0,0,0,0,0,0,-2.1977,-2.198,-2.2008,-2.2002,-2.2002,-2.2001,-2.2003,-2.2014,-2.202,-2.2011,-2.2011,-2.2013,-2.2026,-2.203,-2.2031,-2.2049,-2.2035,-2.2036,-2.2037,-2.2037,-2.2078,-2.2078,0,0,0,0,0,0,-2.1976,-2.1979,-2.2007,-2.2008,-2.1989,-2.2002,-2.2004,-2.2011,-2.202,-2.2021,-2.2014,-2.2013,-2.2029,-2.203,-2.2032,-2.2049,-2.2036,-2.2037,-2.2038,-2.2077,-2.2078,-2.2079,0,0,0,0,0,0,-2.1975,-2.1979,-2.2007,-2.1994,-2.1997,-2.2003,-2.2011,-2.2012,-2.2016,-2.2022,-2.2023,-2.2017,-2.2028,-2.203,-2.2043,-2.205,-2.2038,-2.2039,-2.2077,-2.2078,-2.2078,-2.2085,0,0,0,0,0,0,-2.1974,-2.1979,-2.1985,-2.1994,-2.1998,-2.2019,-2.2011,-2.2012,-2.2018,-2.2018,-2.2026,-2.2027,-2.2028,-2.2042,-2.2044,-2.2051,-2.204,-2.2076,-2.2077,-2.2078,-2.2084,-2.2086,-2.2087,0,0,0,0,0,-2.1973,-2.1986,-2.1985,-2.1989,-2.2006,-2.2019,-2.2021,-2.2023,-2.2019,-2.2025,-2.2028,-2.2026,-2.2049,-2.2043,-2.2046,-2.2053,-2.2076,-2.2077,-2.2078,-2.2083,-2.2085,-2.2087,0,0,0,0,0,0,-2.1977,-2.1987,-2.1987,-2.2003,-2.201,-2.2018,-2.2026,-2.2025,-2.2033,-2.2032,-2.2034,-2.2036,-2.2049,-2.2052,-2.2046,-2.2068,-2.2062,-2.2063,-2.2065,-2.2067,-2.2068,-2.2067,-2.204,0,0,0,0,0,-2.198,-2.199,-2.1998,-2.2012,-2.2015,-2.202,-2.2026,-2.2027,-2.2034,-2.2037,-2.2042,-2.2048,-2.2056,-2.2062,-2.207,-2.2085,-2.2086,-2.2091,-2.2092,-2.2094,-2.2095,-2.2102,-2.2104,-2.2082,-2.2082,-2.2082,0,0,-2.1985,-2.1992,-2.1999,-2.2013,-2.2018,-2.2028,-2.2023,-2.2033,-2.204,-2.2038,-2.2051,-2.2054,-2.2061,-2.2075,-2.2081,-2.2078,-2.2101,-2.2095,-2.2096,-2.2096,-2.2103,-2.2105,-2.2107,-2.2083,-2.2082,-2.2082,0,0,-2.2,-2.2007,-2.2019,-2.2025,-2.2034,-2.2037,-2.204,-2.2048,-2.2051,-2.2063,-2.2062,-2.207,-2.2085,-2.2089,-2.2094,-2.2111,-2.2108,-2.2113,-2.2121,-2.2127,-2.2129,-2.2131,-2.2136,-2.2137,-2.2114,-2.2114,-2.2114,0,-2.2006,-2.2021,-2.2025,-2.2035,-2.2041,-2.2041,-2.2052,-2.2057,-2.2068,-2.2071,-2.2068,-2.2086,-2.2091,-2.2106,-2.211,-2.2114,-2.2116,-2.2112,-2.2129,-2.213,-2.2132,-2.2136,-2.2138,-2.2115,-2.2115,-2.2115,-2.2115,0,-2.2027,-2.2038,-2.2046,-2.2057,-2.2064,-2.2075,-2.2079,-2.2085,-2.2085,-2.2088,-2.2101,-2.2107,-2.2116,-2.2119,-2.212,-2.2133,-2.2131,-2.2129,-2.2122,-2.2134,-2.2139,-2.2141,-2.2116,-2.2115,-2.2115,-2.2115,0,0,-2.2045,-2.2058,-2.206,-2.2065,-2.2075,-2.2083,-2.2093,-2.2103,-2.2107,-2.2115,-2.2123,-2.2135,-2.2133,-2.2138,-2.2139,-2.2145,-2.2156,-2.2141,-2.2141,-2.2143,-2.2171,-2.2172,-2.2174,-2.2156,-2.2156,-2.2156,-2.217,0,-2.206,-2.2079,-2.2082,-2.2098,-2.2108,-2.2107,-2.2116,-2.2123,-2.2126,-2.2133,-2.2137,-2.2145,-2.2142,-2.2144,-2.2151,-2.2154,-2.2162,-2.2153,-2.2162,-2.2162,-2.2159,-2.2177,-2.2178,-2.2191,-2.2172,-2.2172,-2.2172,0,-2.208,-2.2089,-2.2106,-2.2114,-2.2118,-2.2126,-2.2135,-2.2142,-2.2149,-2.2151,-2.2157,-2.2157,-2.2167,-2.2161,-2.2174,-2.2167,-2.2171,-2.2173,-2.2174,-2.2174,-2.2167,-2.2176,-2.2195,-2.2196,-2.2175,-2.2175,-2.2175,0,-2.209,-2.2105,-2.2118,-2.2122,-2.2132,-2.2137,-2.2142,-2.2148,-2.2154,-2.2161,-2.2164,-2.2172,-2.2176,-2.2182,-2.2184,-2.218,-2.2197,-2.2191,-2.2198,-2.2197,-2.22,-2.22,-2.2219,-2.2204,-2.2204,-2.2204,-2.2204,0,-2.2106,-2.2116,-2.2122,-2.213,-2.2141,-2.2144,-2.2155,-2.2159,-2.2165,-2.2172,-2.2172,-2.2179,-2.2182,-2.2189,-2.2191,-2.22,-2.2203,-2.2204,-2.2204,-2.2203,-2.2203,-2.2205,-2.2204,-2.2205,-2.2205,-2.2205,-2.2205,0,-2.2118,-2.2123,-2.2136,-2.2144,-2.2147,-2.2154,-2.2161,-2.2168,-2.2171,-2.2181,-2.2183,-2.2188,-2.2196,-2.2199,-2.2209,-2.221,-2.2221,-2.2221,-2.2219,-2.2218,-2.2224,-2.2223,-2.2244,-2.2247,-2.2232,-2.2232,-2.2232,0,-2.2127,-2.2135,-2.2145,-2.215,-2.2155,-2.2163,-2.2169,-2.2172,-2.2178,-2.2186,-2.2192,-2.22,-2.2207,-2.222,-2.2224,-2.2231,-2.223,-2.2237,-2.2231,-2.223,-2.2229,-2.2228,-2.2229,-2.2238,-2.2238,-2.2238,-2.2238,0,-2.2143,-2.2145,-2.2153,-2.2162,-2.2169,-2.2176,-2.2183,-2.2187,-2.2191,-2.2198,-2.2206,-2.2212,-2.2222,-2.223,-2.2237,-2.2241,-2.224,-2.224,-2.2242,-2.2241,-2.2239,-2.2239,-2.2221,-2.224,-2.224,-2.2239,-2.2239,-2.2239,-2.2153,-2.216,-2.2168,-2.2177,-2.2183,-2.2189,-2.2196,-2.22,-2.2208,-2.2217,-2.2218,-2.2227,-2.2233,-2.2243,-2.2247,-2.2254,-2.2252,-2.2254,-2.2255,-2.2255,-2.2255,-2.2239,-2.2255,-2.2255,-2.2255,-2.2255,-2.2255,0,-2.2168,-2.2173,-2.2182,-2.2192,-2.2198,-2.2198,-2.2206,-2.2211,-2.2219,-2.2226,-2.2233,-2.2242,-2.225,-2.2255,-2.2262,-2.2266,-2.2266,-2.2268,-2.2267,-2.2268,-2.2257,-2.2255,-2.2268,-2.2268,-2.2268,-2.2268,-2.2268,-2.2268,-2.2177,-2.2188,-2.2191,-2.2205,-2.2209,-2.2219,-2.2223,-2.2229,-2.2234,-2.2245,-2.2251,-2.2255,-2.226,-2.2268,-2.2274,-2.2276,-2.2278,-2.228,-2.2281,-2.227,-2.2269,-2.2267,-2.2265,-2.2281,-2.2281,-2.2291,-2.2291,-2.2291]}]]